Home > Weather > Cayenne > Past weeks

Flag for French Guiana Past Weather in Cayenne, French Guiana — Yesterday and Last 2 Weeks

Now
77 °F

Passing clouds.


Feels Like: 78 °F
Forecast: 80 / 88 °F
Wind: 1 mph from North

Location: Cayenne / Rochambeau

Current Time: Jul 24, 2016 at 12:05:52 AM

Latest Report: Jul 23, 2016 at 11:30 PM


Visibility: N/A

Pressure: 29.95 "Hg

Humidity: 94%

Dew Point: 75 °F

Location of CayenneLocation

Past Weather in Cayenne — Graph

°F

Cayenne Temperature Yesterday

Maximum temperature yesterday: 88 °F (at 10:30 AM)
Minimum temperature yesterday: 73 °F (at 4:00 AM)
Average temperature yesterday: 79 °F

High & Low Weather Summary for the Past Weeks

 TemperatureHumidityPressure
High90 °F (Jul 9, 1:00 PM)100% (Jul 9, 4:00 AM)30.01 "Hg (Jul 9, 4:00 AM)
Low72 °F (Jul 12, 5:30 AM)59% (Jul 9, 1:30 PM)29.80 "Hg (Jul 15, 2:30 PM)
Average80 °F86%29.91 "Hg
* Reported Jul 8 11:00 PM — Jul 23 11:00 PM, Cayenne, Weather by CustomWeather, © 2016

Note: Actual official high and low records may vary slightly from our data, if they occured in-between our weather recording intervals... More about our weather records

Advertising

Cayenne Weather History for the Previous 24 Hours

Scroll right to see more
 ConditionsComfort  
Time TempWeatherWind HumidityBarometerVisibility
11:00 PM
Sat, Jul 23
77 °FClear.1 mph94%29.95 "Hg10 mi
10:30 PM77 °FClear.3 mph94%29.92 "Hg10 mi
10:00 PM77 °FPassing clouds.2 mph94%29.92 "HgN/A
9:30 PM77 °FClear.No wind94%29.89 "Hg10 mi
9:00 PM77 °FClear.2 mph94%29.89 "Hg10 mi
8:30 PM77 °FClear.No wind94%29.86 "Hg10 mi
8:00 PM79 °FClear.1 mph89%29.86 "Hg10 mi
7:30 PM81 °FClear.6 mph84%29.86 "Hg10 mi
7:00 PM81 °FClear.6 mph84%29.86 "Hg10 mi
6:30 PM82 °FSunny.6 mph79%29.86 "Hg10 mi
6:00 PM82 °FSunny.6 mph79%29.83 "Hg10 mi
5:30 PM84 °FSunny.8 mph79%29.83 "Hg10 mi
5:00 PM84 °FPassing clouds.10 mph79%29.83 "HgN/A
4:30 PM84 °FPassing clouds.6 mph79%29.83 "HgN/A
4:00 PM84 °FPassing clouds.6 mph79%29.83 "HgN/A
3:30 PM82 °FSunny.1 mph84%29.86 "Hg10 mi
3:00 PM79 °FWarm.2 mph89%29.86 "HgN/A
2:30 PM77 °FScattered clouds.12 mph89%29.86 "HgN/A
2:00 PM82 °FFog.6 mph79%29.86 "Hg3 mi
1:30 PM88 °FScattered clouds.6 mph66%29.86 "HgN/A
1:00 PM84 °FWarm.3 mph79%29.89 "HgN/A
12:30 PM81 °FPartly sunny.3 mph89%29.92 "HgN/A
12:00 PM79 °FBroken clouds.6 mph89%29.92 "HgN/A
11:30 AM82 °FHeavy rain. Broken clouds.13 mph74%29.92 "HgN/A
11:00 AM86 °FBroken clouds.7 mph70%29.92 "HgN/A
10:30 AM88 °FPassing clouds.7 mph66%29.92 "HgN/A
10:00 AM86 °FPassing clouds.6 mph70%29.95 "HgN/A
9:30 AM84 °FPassing clouds.6 mph74%29.92 "HgN/A
9:00 AM82 °FPassing clouds.3 mph79%29.92 "HgN/A
8:30 AM79 °FSunny.No wind89%29.92 "Hg10 mi
8:00 AM75 °FPassing clouds.No wind100%29.92 "HgN/A
7:30 AM75 °FSunny.No wind94%29.92 "Hg10 mi
7:00 AM73 °FSunny.No wind100%29.89 "Hg10 mi
6:30 AM73 °FPassing clouds.No wind100%29.89 "HgN/A
6:00 AM73 °FPartly cloudy.No wind100%29.89 "HgN/A
5:30 AM73 °FPassing clouds.3 mph100%29.89 "HgN/A
5:00 AM73 °FClear.No wind100%29.89 "Hg10 mi
4:30 AM73 °FClear.No wind100%29.86 "Hg10 mi
4:00 AM73 °FClear.1 mph100%29.89 "Hg10 mi
3:30 AM75 °FClear.No wind94%29.89 "Hg10 mi
3:00 AM75 °FClear.2 mph94%29.89 "Hg10 mi
2:30 AM75 °FMild.2 mph94%29.89 "HgN/A
2:00 AM75 °FClear.2 mph94%29.89 "Hg10 mi
1:30 AM75 °FMild.No wind94%29.92 "HgN/A
1:00 AM75 °FMild.1 mph94%29.92 "HgN/A
12:30 AM77 °FWarm.No wind94%29.92 "HgN/A
12:00 AM77 °FPassing clouds.2 mph94%29.95 "HgN/A
Weather by CustomWeather, © 2016

See weather overviewHow to use our weather pages